sat.trackr.live / text

‹ back to catalog

HULIANWANG DIGUI-38

NORAD 64959 · 2025-159D

PAYLOAD ACTIVE UNKNOWN

§ Identity

Operator
Country
PRC
Launch date
2025-07-27
Launch site
TAISC
Launch vehicle
Mass (kg)
RCS (m²)

External: N2YO · Heavens-Above · Gunter

§ Orbital elements

Epoch: 2026-09-21T22:25:23.824128Z

Period
108.73 min
Inclination
86.4920°
Eccentricity
0.0001990
Mean motion
13.24401765 rev/d
Perigee alt
1,166.5 km
Apogee alt
1,169.5 km
Semi-major
7,546.1 km
B*
-1.8746e-4
RAAN
249.7951°
Arg perigee
86.8765°
Mean anomaly
273.2596°
Rev number
5,593

§ Raw data

HULIANWANG DIGUI-381 64959U 25159D   26264.93430352 -.00000066  00000+0 -18746-3 0  99962 64959  86.4920 249.7951 0001990  86.8765 273.2596 13.24401765 55939

JSON: /api/v1/satellites/64959 · /tle

For live sub-satellite position, see the globe view (requires WebGL).

§ Visibility from observer

Set your observer location to see the next 7 days of passes ≥ 10°. The values pass through the URL so the page stays shareable.

No JS? Fill the form by hand. The geolocation button needs JavaScript.